Weather History for Saranac Lake, NY

Change the Weather History Date:

Monday, February 4, 2013

  Actual Average Record
Temperature  
Mean Temperature 1 °F 13 °F  
Max Temperature 15 °F 26 °F 55 °F (1991)
Min Temperature -13 °F 1 °F -27 °F (1955)
Degree Days  
Heating Degree Days 64 52  
Month to date heating degree days 239 208  
Since 1 July heating degree days 5148 5510  
Moisture  
Dew Point 1 °F    
Average Humidity 64    
Maximum Humidity 92    
Minimum Humidity 36    
Precipitation  
Precipitation 0.01 in 0.06 in 0.64 in (1972)
Month to date precipitation 0.01 0.23  
Year to date precipitation 1.24 2.36  
Sea Level Pressure  
Sea Level Pressure 29.73 in    
Wind  
Wind Speed 6 mph (WSW)    
Max Wind Speed 20 mph    
Max Gust Speed 31 mph    
Visibility 7 miles    
Events Fog , Snow    
T = Trace of Precipitation, MM = Missing Value Source: NWS Daily Summary

Daily Weather History Graph

Daily Weather History Graph

Search for Another Location

Airport:

Trip Planner

Search our weather history database for the weather conditions in past years. The results will help you decide how hot, cold, wet, or windy it might be!

Date:

Astronomy

Feb. 04, 2013 Rise Set
Actual Time 7:11 AM EST 5:10 PM EST
Civil Twilight 6:40 AM EST 5:41 PM EST
Nautical Twilight 6:06 AM EST 6:16 PM EST
Astronomical Twilight 5:32 AM EST 6:50 PM EST
Moon 1:46 AM EST (2/4) 11:29 AM EST (2/4)
Length of Visible Light 11h 00m
Length of Day
9h 59m
Last Quarter, 37% of the Moon is Illuminated
Feb 4
Last Quarter
Feb 10
New
Feb 17
First Quarter
Feb 25
Full
Mar 4
Last Quarter

Hourly Weather History & Observations

Time (EST) Temp. Windchill Dew Point Humidity Pressure Visibility Wind Dir Wind Speed Gust Speed Precip Events Conditions
12:00 AM 12.2 °F - 10.4 °F 92% 29.62 in 3.0 mi Calm Calm - 0.00 in Snow Light Snow
12:22 AM 12.2 °F - 10.4 °F 92% 29.62 in 4.0 mi Calm Calm - 0.00 in Snow Light Snow
1:01 AM 14.0 °F 6.5 °F 10.4 °F 86% 29.62 in 2.5 mi WSW 4.6 mph - 0.00 in Snow Light Snow
1:10 AM 14.0 °F 5.1 °F 10.4 °F 86% 29.62 in 4.0 mi Variable 5.8 mph - 0.00 in Snow Light Snow
1:51 AM 12.9 °F 3.8 °F 9.0 °F 84% 29.72 in 10.0 mi Variable 5.8 mph - 0.00 in   Mostly Cloudy
2:35 AM 10.4 °F - 6.8 °F 85% 29.64 in 7.0 mi Calm Calm - N/A   Scattered Clouds
2:43 AM 10.4 °F - 6.8 °F 85% 29.64 in 8.0 mi Calm Calm - N/A   Mostly Cloudy
2:51 AM 9.0 °F - 6.1 °F 88% 29.73 in 8.0 mi Calm Calm - N/A   Scattered Clouds
3:06 AM 8.6 °F - 6.8 °F 92% 29.64 in 6.0 mi Calm Calm - N/A   Mostly Cloudy
3:21 AM 8.6 °F - 5.0 °F 85% 29.64 in 5.0 mi Calm Calm - N/A   Overcast
3:51 AM 8.1 °F 1.4 °F 5.0 °F 87% 29.74 in 7.0 mi WSW 3.5 mph - N/A   Scattered Clouds
4:20 AM 8.6 °F - 5.0 °F 85% 29.65 in 7.0 mi Calm Calm - N/A   Mostly Cloudy
6:21 AM -0.4 °F - -2.2 °F 92% 29.66 in 5.0 mi Calm Calm - N/A   Mostly Cloudy
6:51 AM 6.1 °F -4.3 °F 3.0 °F 87% 29.77 in 6.0 mi SW 5.8 mph - N/A   Overcast
7:06 AM 6.8 °F -3.5 °F 3.2 °F 85% 29.67 in 2.5 mi WSW 5.8 mph - 0.00 in Snow Light Snow
7:42 AM 8.6 °F 2.0 °F 6.8 °F 92% 29.67 in 0.8 mi SW 3.5 mph - 0.00 in Snow Light Snow
7:51 AM 9.0 °F -0.9 °F 7.0 °F 92% 29.77 in 0.5 mi SW 5.8 mph - 0.00 in Fog , Snow Snow
8:14 AM 10.4 °F -4.1 °F 6.8 °F 85% 29.67 in 1.5 mi WSW 11.5 mph - 0.00 in Snow Light Snow
8:19 AM 10.4 °F -2.4 °F 6.8 °F 85% 29.67 in 3.0 mi WSW 9.2 mph - 0.00 in Snow Light Snow
8:51 AM 10.9 °F -2.6 °F 6.1 °F 81% 29.78 in 7.0 mi West 10.4 mph 19.6 mph 0.00 in   Overcast
9:47 AM 12.2 °F -0.2 °F 1.4 °F 62% 29.67 in 10.0 mi WSW 9.2 mph 18.4 mph 0.01 in   Scattered Clouds
9:51 AM 12.0 °F -3.4 °F 1.9 °F 64% 29.77 in 10.0 mi West 13.8 mph 21.9 mph 0.01 in   Scattered Clouds
10:24 AM 12.2 °F -2.5 °F 3.2 °F 67% 29.68 in 9.0 mi WSW 12.7 mph 23.0 mph N/A   Mostly Cloudy
10:51 AM 10.9 °F 0.2 °F 1.9 °F 67% 29.78 in 9.0 mi Variable 6.9 mph 26.5 mph N/A   Overcast
11:00 AM 10.4 °F -0.4 °F 1.4 °F 67% 29.68 in 10.0 mi Variable 6.9 mph 19.6 mph N/A   Mostly Cloudy
11:11 AM 10.4 °F -4.8 °F 1.4 °F 67% 29.67 in 10.0 mi WSW 12.7 mph 20.7 mph N/A   Mostly Cloudy
11:21 AM 12.2 °F -0.2 °F 1.4 °F 62% 29.67 in 10.0 mi West 9.2 mph 18.4 mph N/A   Scattered Clouds
11:51 AM 14.0 °F -0.2 °F -2.0 °F 49% 29.75 in 10.0 mi West 12.7 mph 24.2 mph N/A   Scattered Clouds
12:51 PM 15.1 °F -0.6 °F -7.1 °F 37% 29.75 in 10.0 mi WSW 16.1 mph 25.3 mph N/A   Partly Cloudy
1:51 PM 14.0 °F -0.8 °F -7.1 °F 39% 29.77 in 10.0 mi WSW 13.8 mph 24.2 mph N/A   Partly Cloudy
2:51 PM 14.0 °F -0.2 °F -7.1 °F 39% 29.78 in 10.0 mi West 12.7 mph 21.9 mph N/A   Clear
3:51 PM 12.0 °F -3.4 °F -9.9 °F 37% 29.80 in 10.0 mi West 13.8 mph 29.9 mph N/A   Clear
4:51 PM 10.9 °F -0.8 °F -9.0 °F 40% 29.82 in 10.0 mi West 8.1 mph 21.9 mph N/A   Clear
5:51 PM 8.1 °F 1.4 °F -8.0 °F 48% 29.84 in 10.0 mi Variable 3.5 mph - N/A   Clear
6:51 PM 6.1 °F -2.8 °F -7.1 °F 55% 29.85 in 10.0 mi WSW 4.6 mph - N/A   Partly Cloudy
7:51 PM 1.0 °F - -7.1 °F 69% 29.86 in 10.0 mi Calm Calm - N/A   Partly Cloudy
8:51 PM -2.9 °F - -8.0 °F 79% 29.87 in 10.0 mi Calm Calm - N/A   Clear
9:51 PM -6.0 °F - -9.9 °F 83% 29.88 in 10.0 mi Calm Calm - N/A   Clear
10:51 PM -11.0 °F - -15.0 °F 83% 29.90 in 10.0 mi Calm Calm - N/A   Clear
11:51 PM -11.9 °F - -16.1 °F 82% 29.91 in 10.0 mi Calm Calm - N/A   Clear